• Em Portugal
  • Lista de países
  • Para 7 dias
  • Temperatura da água
  • Mapas de satélite
  • Mapa do tempo
  • Widgets de tempo
  • user-avatar
    Iniciar Sessão

    Previsão horária em Katmandu

    Hoje, 18 Fevereiro, Domingo

    Tempo Temperatura Precipitação Vento Pressão Humidade
    00:00 +11°C° 0 mm 1 m/s 648 mmHg 91%
    01:00 +11°C° 0,2 mm 1 m/s 648 mmHg 87%
    02:00 +10°C° 0,2 mm 2 m/s 648 mmHg 82%
    03:00 +9°C° 0,2 mm 2 m/s 648 mmHg 78%
    04:00 +9°C° 0 mm 2 m/s 648 mmHg 72%
    05:00 +9°C° 0 mm 2 m/s 648 mmHg 66%
    06:00 +8°C° 0 mm 2 m/s 648 mmHg 62%
    07:00 +10°C° 0 mm 2 m/s 649 mmHg 54%
    08:00 +13°C° 0 mm 1 m/s 650 mmHg 47%
    09:00 +16°C° 0 mm 1 m/s 651 mmHg 39%
    10:00 +18°C° 0 mm 1 m/s 651 mmHg 37%
    11:00 +18°C° 0 mm 2 m/s 651 mmHg 35%
    12:00 +20°C° 0 mm 2 m/s 651 mmHg 32%
    13:00 +20°C° 0 mm 2 m/s 651 mmHg 35%
    14:00 +20°C° 0 mm 3 m/s 650 mmHg 37%
    15:00 +20°C° 0 mm 3 m/s 650 mmHg 39%
    16:00 +18°C° 0 mm 2 m/s 649 mmHg 48%
    17:00 +17°C° 0 mm 2 m/s 649 mmHg 57%
    18:00 +15°C° 0 mm 1 m/s 649 mmHg 65%
    19:00 +14°C° 0,1 mm 1 m/s 649 mmHg 68%
    20:00 +13°C° 0,1 mm 1 m/s 649 mmHg 71%
    21:00 +12°C° 0,1 mm 1 m/s 649 mmHg 74%
    22:00 +12°C° 0 mm 1 m/s 650 mmHg 73%
    23:00 +12°C° 0 mm 1 m/s 650 mmHg 72%

    Amanhã, 19 Fevereiro, Segunda-feira

    Tempo Temperatura Precipitação Vento Pressão Humidade
    00:00 +10°C° 0 mm 2 m/s 650 mmHg 71%
    01:00 +10°C° 0 mm 2 m/s 649 mmHg 68%
    02:00 +10°C° 0 mm 2 m/s 649 mmHg 65%
    03:00 +10°C° 0 mm 2 m/s 649 mmHg 62%
    04:00 +10°C° 0 mm 2 m/s 649 mmHg 59%
    05:00 +10°C° 0 mm 2 m/s 649 mmHg 56%
    06:00 +10°C° 0 mm 2 m/s 649 mmHg 53%
    07:00 +13°C° 0 mm 2 m/s 650 mmHg 47%
    08:00 +15°C° 0 mm 1 m/s 652 mmHg 40%
    09:00 +18°C° 0 mm 1 m/s 653 mmHg 34%
    10:00 +20°C° 0 mm 1 m/s 653 mmHg 32%
    11:00 +20°C° 0 mm 2 m/s 653 mmHg 29%
    12:00 +21°C° 0 mm 2 m/s 653 mmHg 26%
    13:00 +21°C° 0 mm 2 m/s 653 mmHg 27%
    14:00 +21°C° 0 mm 3 m/s 652 mmHg 28%
    15:00 +22°C° 0 mm 3 m/s 652 mmHg 29%
    16:00 +20°C° 0 mm 2 m/s 651 mmHg 35%
    17:00 +18°C° 0 mm 2 m/s 651 mmHg 41%
    18:00 +16°C° 0 mm 1 m/s 651 mmHg 48%
    19:00 +15°C° 0 mm 1 m/s 651 mmHg 49%
    20:00 +13°C° 0 mm 1 m/s 651 mmHg 50%
    21:00 +12°C° 0 mm 1 m/s 651 mmHg 51%
    22:00 +12°C° 0 mm 2 m/s 651 mmHg 50%
    23:00 +12°C° 0 mm 2 m/s 651 mmHg 49%

    Depois de amanhã, 20 Fevereiro, Terça-feira

    Tempo Temperatura Precipitação Vento Pressão Humidade
    00:00 +12°C° 0 mm 2 m/s 651 mmHg 48%
    01:00 +12°C° 0 mm 2 m/s 651 mmHg 46%
    02:00 +12°C° 0 mm 2 m/s 651 mmHg 43%
    03:00 +12°C° 0 mm 2 m/s 651 mmHg 41%
    04:00 +10°C° 0 mm 2 m/s 650 mmHg 38%
    05:00 +10°C° 0 mm 2 m/s 650 mmHg 36%
    06:00 +10°C° 0 mm 2 m/s 650 mmHg 33%
    07:00 +14°C° 0 mm 2 m/s 651 mmHg 30%
    08:00 +16°C° 0 mm 1 m/s 653 mmHg 28%
    09:00 +19°C° 0 mm 1 m/s 654 mmHg 25%
    10:00 +20°C° 0 mm 2 m/s 654 mmHg 25%
    11:00 +21°C° 0 mm 2 m/s 654 mmHg 25%
    12:00 +23°C° 0 mm 2 m/s 654 mmHg 25%
    13:00 +22°C° 0 mm 3 m/s 653 mmHg 27%
    14:00 +22°C° 0 mm 3 m/s 653 mmHg 29%
    15:00 +22°C° 0 mm 3 m/s 652 mmHg 30%
    16:00 +20°C° 0 mm 2 m/s 651 mmHg 38%
    17:00 +18°C° 0 mm 2 m/s 651 mmHg 45%
    18:00 +16°C° 0 mm 1 m/s 650 mmHg 52%
    19:00 +15°C° 0 mm 1 m/s 651 mmHg 55%
    20:00 +14°C° 0 mm 1 m/s 651 mmHg 57%
    21:00 +13°C° 0 mm 1 m/s 651 mmHg 59%
    22:00 +12°C° 0 mm 1 m/s 651 mmHg 56%
    23:00 +12°C° 0 mm 2 m/s 651 mmHg 54%

    21 Fevereiro, Quarta-feira

    Tempo Temperatura Precipitação Vento Pressão Humidade
    00:00 +12°C° 0 mm 2 m/s 651 mmHg 52%
    01:00 +12°C° 0 mm 2 m/s 650 mmHg 49%
    02:00 +12°C° 0 mm 2 m/s 650 mmHg 47%
    03:00 +12°C° 0 mm 2 m/s 649 mmHg 44%
    04:00 +10°C° 0 mm 2 m/s 649 mmHg 41%
    05:00 +10°C° 0 mm 2 m/s 649 mmHg 39%
    06:00 +10°C° 0 mm 2 m/s 649 mmHg 36%
    07:00 +14°C° 0 mm 2 m/s 650 mmHg 32%
    08:00 +16°C° 0 mm 1 m/s 651 mmHg 29%
    09:00 +19°C° 0 mm 1 m/s 653 mmHg 26%
    10:00 +20°C° 0 mm 1 m/s 653 mmHg 25%
    11:00 +21°C° 0 mm 2 m/s 653 mmHg 25%
    12:00 +23°C° 0 mm 2 m/s 653 mmHg 25%
    13:00 +23°C° 0 mm 2 m/s 652 mmHg 27%
    14:00 +22°C° 0 mm 3 m/s 651 mmHg 28%
    15:00 +22°C° 0 mm 3 m/s 650 mmHg 30%
    16:00 +20°C° 0 mm 2 m/s 650 mmHg 38%
    17:00 +18°C° 0 mm 2 m/s 650 mmHg 45%
    18:00 +18°C° 0 mm 1 m/s 649 mmHg 52%
    19:00 +15°C° 0 mm 1 m/s 649 mmHg 55%
    20:00 +14°C° 0 mm 1 m/s 650 mmHg 57%
    21:00 +13°C° 0 mm 1 m/s 650 mmHg 60%
    22:00 +13°C° 0 mm 1 m/s 650 mmHg 57%
    23:00 +13°C° 0 mm 2 m/s 650 mmHg 55%

    22 Fevereiro, Quinta-feira

    Tempo Temperatura Precipitação Vento Pressão Humidade
    00:00 +12°C° 0 mm 2 m/s 650 mmHg 53%
    01:00 +12°C° 0 mm 2 m/s 649 mmHg 50%
    02:00 +12°C° 0 mm 2 m/s 649 mmHg 48%
    03:00 +12°C° 0 mm 2 m/s 649 mmHg 45%
    04:00 +12°C° 0 mm 2 m/s 649 mmHg 42%
    05:00 +12°C° 0 mm 2 m/s 649 mmHg 40%
    06:00 +12°C° 0 mm 2 m/s 649 mmHg 37%
    07:00 +14°C° 0 mm 2 m/s 650 mmHg 33%
    08:00 +16°C° 0 mm 1 m/s 651 mmHg 30%
    09:00 +19°C° 0 mm 1 m/s 652 mmHg 26%
    10:00 +20°C° 0 mm 1 m/s 652 mmHg 26%
    11:00 +21°C° 0 mm 2 m/s 652 mmHg 25%
    12:00 +23°C° 0 mm 2 m/s 652 mmHg 25%
    13:00 +23°C° 0 mm 2 m/s 652 mmHg 27%
    14:00 +22°C° 0 mm 3 m/s 651 mmHg 29%
    15:00 +22°C° 0 mm 3 m/s 650 mmHg 31%
    16:00 +20°C° 0,5 mm 2 m/s 650 mmHg 39%
    17:00 +18°C° 0,5 mm 2 m/s 650 mmHg 48%
    18:00 +16°C° 0,5 mm 1 m/s 650 mmHg 56%
    19:00 +15°C° 0,7 mm 1 m/s 650 mmHg 60%
    20:00 +14°C° 0,7 mm 2 m/s 650 mmHg 63%
    21:00 +13°C° 0,7 mm 2 m/s 651 mmHg 67%
    22:00 +13°C° 0,1 mm 2 m/s 651 mmHg 63%
    23:00 +13°C° 0,1 mm 2 m/s 651 mmHg 60%

    23 Fevereiro, Sexta-feira

    Tempo Temperatura Precipitação Vento Pressão Humidade
    00:00 +13°C° 0,1 mm 2 m/s 651 mmHg 56%
    01:00 +13°C° 0 mm 2 m/s 651 mmHg 53%
    02:00 +12°C° 0 mm 2 m/s 651 mmHg 50%
    03:00 +12°C° 0 mm 2 m/s 650 mmHg 46%
    04:00 +12°C° 0 mm 2 m/s 650 mmHg 44%
    05:00 +12°C° 0 mm 2 m/s 650 mmHg 42%
    06:00 +10°C° 0 mm 2 m/s 650 mmHg 39%
    07:00 +14°C° 0 mm 2 m/s 651 mmHg 35%
    08:00 +16°C° 0 mm 1 m/s 653 mmHg 31%
    09:00 +19°C° 0 mm 1 m/s 654 mmHg 27%
    10:00 +21°C° 0 mm 1 m/s 654 mmHg 27%
    11:00 +21°C° 0 mm 2 m/s 654 mmHg 27%
    12:00 +23°C° 0 mm 2 m/s 654 mmHg 27%
    13:00 +23°C° 0 mm 2 m/s 653 mmHg 29%
    14:00 +23°C° 0 mm 2 m/s 653 mmHg 30%
    15:00 +23°C° 0 mm 2 m/s 652 mmHg 32%
    16:00 +21°C° 0 mm 2 m/s 652 mmHg 39%
    17:00 +19°C° 0 mm 2 m/s 651 mmHg 45%
    18:00 +18°C° 0 mm 1 m/s 651 mmHg 52%
    19:00 +16°C° 0 mm 1 m/s 651 mmHg 53%
    20:00 +15°C° 0 mm 1 m/s 651 mmHg 55%
    21:00 +14°C° 0 mm 2 m/s 652 mmHg 56%
    22:00 +14°C° 0 mm 2 m/s 652 mmHg 54%
    23:00 +14°C° 0 mm 2 m/s 652 mmHg 51%
    Mostrar mais